Allendale, SC

11:22 AM EST on March 03, 2015 (GMT -0500)
Joe Miley Road | Change Station
CLOSE
Current Station
Personal Weather Station
Location: Brunson, SC
Elevation: 130 ft
Nearby Weather Stations

Elev 130 ft 32.94 °N, 81.13 °W | Updated 2 minutes ago

Overcast
Overcast
58.1 °F
Feels Like 58.1 °F
N
1.7
Wind Variable Wind from South

Today
High -- | Low -- °F
--% Chance of Precip.
Yesterday
High -- | Low -- °F
Precip. -- in
6:51 AM 6:23 PM
Waxing Gibbous, 96% visible
Pressure 30.24 in
Visibility 5.0 miles
Clouds Overcast 300 ft
Dew Point 57 °F
Humidity 95%
Rainfall 0.05 in
Snow Depth Not available.
UV 2 out of 12
Pollen 1.90 out of 12
Air Quality Not available.
Flu Activity Not available.
METAR KJYL 031615Z AUTO 11005KT 5SM BR OVC003 16/16 A3024 RMK AO2 T01550155

More Conditions Fewer Conditions

Pressure 30.24 in
Visibility 5.0 miles
Clouds Overcast 300 ft
Dew Point 57 °F
Humidity 95%
Rainfall 0.05 in
Snow Depth Not available.
UV 2 out of 12
Pollen 1.90 out of 12
Air Quality Not available.
Flu Activity Not available.
METAR KJYL 031615Z AUTO 11005KT 5SM BR OVC003 16/16 A3024 RMK AO2 T01550155

More Conditions Fewer Conditions

10-Day Weather Forecast

Almanac

Astronomy

Mar. 03, 2015 Rise Set
Actual Time
Civil Twilight
Nautical Twilight
Astronomical Twilight
Moon
Length of Visible Light
Length of Day
Tomorrow will be .
, % of the Moon is Illuminated

Today's Extremes

State Highs State Lows

Community

WunderPhotos

Upload Photos

1,802,156 photos uploaded!

WunderBlogs® & News

Nearby

Air Quality

  Air Quality AQ Index Pollutant
Not available.

Snow Depth

Station Depth Elevation

Earthquake Activity

City Distance Mag. Time & Date
Minimum magnitude displayed is 2.5.

Coastal Water Temperatures

Place Temperature

Nearby Weather Stations